| time (UTC) | temp F | wind direction | speed MPH | gust MPH | rain 1hr in | rain 24hr in | rain mn in | humidity % | barometer mb |
| 20260504223055 | 53 | 324 | 22.0 | 32.0 | 0.00 | 0.00 | 0.00 | 23 | 1015.1 |
| 20260504221538 | 52 | 308 | 26.0 | 33.0 | 0.00 | 0.00 | 0.00 | 24 | 1015.3 |
| 20260504220034 | 52 | 335 | 23.0 | 33.0 | 0.00 | 0.00 | 0.00 | 28 | 1015.3 |
| 20260504214536 | 53 | 333 | 24.0 | 35.0 | 0.00 | 0.00 | 0.00 | 28 | 1015.2 |
| 20260504213051 | 52 | 332 | 21.0 | 34.0 | 0.00 | 0.00 | 0.00 | 28 | 1015.4 |
| 20260504211538 | 52 | 316 | 21.0 | 35.0 | 0.00 | 0.00 | 0.00 | 27 | 1015.4 |
| 20260504210041 | 52 | 317 | 18.0 | 32.0 | 0.00 | 0.00 | 0.00 | 29 | 1015.4 |
| 20260504204545 | 52 | 334 | 25.0 | 37.0 | 0.00 | 0.00 | 0.00 | 29 | 1015.4 |
| 20260504203044 | 52 | 320 | 23.0 | 32.0 | 0.00 | 0.00 | 0.00 | 31 | 1015.4 |
| 20260504201539 | 51 | 313 | 22.0 | 32.0 | 0.00 | 0.00 | 0.00 | 33 | 1015.5 |
| 20260504200038 | 51 | 337 | 20.0 | 34.0 | 0.00 | 0.00 | 0.00 | 33 | 1015.5 |
| 20260504194535 | 51 | 342 | 21.0 | 29.0 | 0.00 | 0.00 | 0.00 | 33 | 1015.4 |
| 20260504193037 | 51 | 309 | 22.0 | 30.0 | 0.00 | 0.00 | 0.00 | 34 | 1015.5 |
| 20260504191537 | 51 | 318 | 21.0 | 34.0 | 0.00 | 0.00 | 0.00 | 34 | 1015.5 |
| 20260504190044 | 51 | 314 | 19.0 | 31.0 | 0.00 | 0.00 | 0.00 | 36 | 1015.5 |
| 20260504184538 | 51 | 330 | 17.0 | 33.0 | 0.00 | 0.00 | 0.00 | 37 | 1015.5 |
| 20260504183037 | 51 | 332 | 23.0 | 32.0 | 0.00 | 0.00 | 0.00 | 36 | 1015.5 |
| 20260504181543 | 50 | 315 | 17.0 | 25.0 | 0.00 | 0.00 | 0.00 | 38 | 1015.5 |
| 20260504180043 | 50 | 338 | 17.0 | 27.0 | 0.00 | 0.00 | 0.00 | 38 | 1015.7 |
| 20260504174538 | 50 | 293 | 14.0 | 26.0 | 0.00 | 0.00 | 0.00 | 38 | 1015.4 |
| 20260504173037 | 50 | 310 | 18.0 | 29.0 | 0.00 | 0.00 | 0.00 | 39 | 1015.7 |
| 20260504171545 | 50 | 328 | 16.0 | 23.0 | 0.00 | 0.00 | 0.00 | 39 | 1015.7 |
| 20260504081541 | 46 | 15 | 14.0 | 20.0 | 0.00 | 0.00 | 0.00 | 60 | 1015.3 |
| 20260504044543 | 55 | 18 | 17.0 | 27.0 | 0.00 | 0.00 | 0.00 | 39 | 1011.2 |
| 20260504043037 | 57 | 28 | 17.0 | 25.0 | 0.00 | 0.00 | 0.00 | 37 | 1010.6 |
| 20260504041535 | 57 | 31 | 11.0 | 20.0 | 0.00 | 0.00 | 0.00 | 36 | 1009.8 |
| 20260504040058 | 57 | 5 | 11.0 | 17.0 | 0.00 | 0.00 | 0.00 | 35 | 1009.3 |
| 20260504034550 | 58 | 12 | 13.0 | 20.0 | 0.00 | 0.00 | 0.00 | 34 | 1009.0 |
| 20260504033037 | 58 | 8 | 14.0 | 20.0 | 0.00 | 0.00 | 0.00 | 35 | 1008.7 |
| 20260504031536 | 58 | 2 | 12.0 | 20.0 | 0.00 | 0.00 | 0.00 | 36 | 1008.4 |
| 20260504030055 | 59 | 17 | 15.0 | 21.0 | 0.00 | 0.00 | 0.00 | 34 | 1008.2 |
| 20260504024538 | 60 | 31 | 14.0 | 20.0 | 0.00 | 0.00 | 0.00 | 33 | 1008.0 |
| 20260504023037 | 62 | 12 | 15.0 | 21.0 | 0.00 | 0.00 | 0.00 | 30 | 1007.9 |
| 20260504021538 | 64 | 25 | 10.0 | 17.0 | 0.00 | 0.00 | 0.00 | 26 | 1007.9 |
| 20260504020037 | 66 | 11 | 10.0 | 20.0 | 0.00 | 0.00 | 0.00 | 23 | 1007.9 |
| 20260504014537 | 68 | 340 | 10.0 | 14.0 | 0.00 | 0.00 | 0.00 | 19 | 1007.8 |
| 20260504013048 | 69 | 355 | 15.0 | 20.0 | 0.00 | 0.00 | 0.00 | 17 | 1007.9 |
| 20260504011540 | 70 | 329 | 14.0 | 18.0 | 0.00 | 0.00 | 0.00 | 17 | 1007.9 |
| 20260504010037 | 70 | 335 | 13.0 | 18.0 | 0.00 | 0.00 | 0.00 | 16 | 1007.8 |
| 20260504004537 | 71 | 331 | 12.0 | 19.0 | 0.00 | 0.00 | 0.00 | 17 | 1007.9 |
| 20260504003037 | 71 | 330 | 14.0 | 20.0 | 0.00 | 0.00 | 0.00 | 17 | 1008.2 |
| 20260504001541 | 71 | 320 | 13.0 | 22.0 | 0.00 | 0.00 | 0.00 | 17 | 1008.4 |
| 20260504000037 | 71 | 332 | 14.0 | 21.0 | 0.00 | 0.00 | 0.00 | 17 | 1008.4 |
| 20260503234540 | 71 | 309 | 13.0 | 24.0 | 0.00 | 0.00 | 0.00 | 17 | 1008.5 |
| 20260503233039 | 71 | 307 | 14.0 | 23.0 | 0.00 | 0.00 | 0.00 | 17 | 1008.7 |
| 20260503231537 | 71 | 295 | 15.0 | 30.0 | 0.00 | 0.00 | 0.00 | 17 | 1008.7 |
| 20260503230038 | 71 | 314 | 18.0 | 28.0 | 0.00 | 0.00 | 0.00 | 17 | 1008.6 |
| 20260503224537 | 71 | 321 | 13.0 | 26.0 | 0.00 | 0.00 | 0.00 | 17 | 1009.0 |